Tracking 20710 objects as of 30-May-2020
HD Live streaming from Space Station
objects crossing your sky now

DMSP 5D-2 F6 DEB

Track DMSP 5D-2 F6 DEB now!
10-day predictions


NORAD ID: 40918
Int'l Code: 1982-118L
Perigee: 576.8 km
Apogee: 755.5 km
Inclination: 98.4 °
Period: 97.9 minutes
Semi major axis: 7037 km
RCS: Unknown
Launch date: December 21, 1982
Source: United States (US)
Launch site: AIR FORCE WESTERN TEST RANGE (AFWTR)

Note: This is SATELLITE DEBRIS
aabbcc
Your satellite tracking list
Your tracking list is empty




NASA's NSSDC Master Catalog

Two Line Element Set (TLE):
1 40918U 82118L   20150.24210330 +.00002246 +00000-0 +33487-3 0  9997
2 40918 098.4340 050.2005 0126923 267.5045 091.1625 14.70648436232145
Source of the keplerian elements: AFSPC